User: anonymous   Login
Location: Pl�tzky
(52.0521°N, 11.8020°E)
Time: 18:29:08
(UTC+00:00)
Language:

Cosmos 1400 Rocket - Orbit

View from above orbital plane
View from above orbital plane
View from above satellite
View from above satellite

Ground track
Ground track

The orbit data is extracted from the following two-line orbital elements,

1 13403U 82079B   20024.80418719  .00000398  00000-0  24603-4 0  9992
2 13403  81.1696 258.8733 0033624  21.0392 339.2206 15.07115869 40030
Epoch (UTC): 24 January 2020 19:18:01
Eccentricity: 0.0033624
inclination: 81.1696°
perigee height: 522 km
apogee height: 568 km
right ascension of ascending node: 258.8733°
argument of perigee: 21.0392°
revolutions per day: 15.07115869
mean anomaly at epoch: 339.2206°
orbit number at epoch: 4003

The dashed part of the orbit path shows where the satellite is in the earth's shadow,  

DLR